Regional Weather Roundup
Issued by NWS

Home | Current Version | Previous Version | Graphics & Text | Print | Product List | Glossary On
Versions: 1 2 3 4 5 6 7 8 9 10 11 12 13 14 15 16 17 18 19 20 21 22 23 24 25 26 27 28 29 30 31 32 33 34 35 36 37 38 39 40 41 42 43 44 45 46 47 48 49 50
000
ASUS43 KLMK 050810
RWRKY
KENTUCKY REGIONAL WEATHER ROUNDUP
NATIONAL WEATHER SERVICE LOUISVILLE KY
400 AM EDT THU MAY 05 2016

NOTE "FAIR" INDICATES FEW OR NO CLOUDS BELOW 12,000 FEET
WITH NO SIGNIFICANT WEATHER AND/OR OBSTRUCTIONS TO VISIBILITY.

KYZ001>023-026-027-061>063-070>075-050900-
WESTERN AND SOUTH CENTRAL KENTUCKY

CITY           SKY/WX    TMP DP  RH WIND       PRES   REMARKS
PADUCAH        PTCLDY    44  40  85 SW5       29.83F
HENDERSON      MOCLDY    50  41  71 W7        29.79F
OWENSBORO      CLOUDY    50  46  85 W5        29.79F
HOPKINSVILLE   CLEAR     44  41  89 SW6       29.82F
BOWLING GREEN  CLOUDY    49  42  77 SW5       29.80F
GLASGOW        CLOUDY    44  44 100 CALM      29.78F
$$

KYZ024-025-028>034-038-045-046-053-050900-
NORTH CENTRAL KENTUCKY

CITY           SKY/WX    TMP DP  RH WIND       PRES   REMARKS
LOUISVILLE/SDF LGT RAIN  48  42  80 W9        29.76F
LOUISVILLE/LOU LGT RAIN  47  42  83 CALM      29.76F
FORT KNOX      CLOUDY    45  43  93 W3        29.74F
$$

KYZ035>037-039>044-047>052-055>060-089>105-050900-
NORTHEAST KENTUCKY

CITY           SKY/WX    TMP DP  RH WIND       PRES   REMARKS
LEXINGTON      CLOUDY    44  38  79 W6        29.73F
COVINGTON      LGT RAIN  42  39  89 NW5       29.71F
FRANKFORT      CLOUDY    47  38  71 W6        29.72F
$$

KYZ054-064>069-076>088-106>120-050900-
SOUTHEAST KENTUCKY

CITY           SKY/WX    TMP DP  RH WIND       PRES   REMARKS
JACKSON        PTCLDY    42  38  85 NW3       29.72F
LONDON         CLEAR     43  39  86 W3        29.74F
SOMERSET       CLEAR     43  43 100 W3        29.77F
MIDDLESBORO    CLOUDY    46  41  81 N5        29.74F
MONTICELLO     SUNNY     45  44  97 NW7       29.78F
$$




USA.gov is the U.S. government's official web portal to all federal, state and local government web resources and services.